Theta_e
316 315 317 321 319 315 317 319 319 321 321 320 324 334 336 339 342 344 338 341 326 321 318 317 318 317 317 317 317 319 320 324 328 330 331 331 329 329 329 330 329 328 323 320 318 318 315 315 316
315 320 319 317 317 318 318 319 321 321 320 321 324 333 338 343 340 341 341 334 323 320 318 317 317 317 317 317 317 317 318 319 324 326 328 328 327 327 326 325 324 322 319 318 316 316 317 318 319
321 323 319 319 316 318 319 321 322 321 322 322 330 332 338 341 337 341 340 333 323 320 318 317 317 317 317 317 317 316 316 317 319 320 324 326 326 325 323 321 320 318 316 314 316 318 319 321 320
322 323 322 317 318 319 321 321 321 322 321 321 328 335 335 338 337 340 340 327 323 321 318 317 316 316 317 317 317 316 316 316 317 318 320 323 323 322 321 319 317 315 314 316 319 320 323 322 324
323 315 318 316 317 318 319 320 319 319 318 319 322 329 336 335 336 339 339 326 324 321 319 317 316 316 316 316 317 316 316 316 316 316 317 320 320 319 318 317 316 314 314 317 321 323 326 325 326
326 315 316 318 319 319 319 318 318 319 319 319 320 324 333 336 343 342 332 326 324 322 320 318 316 316 316 316 316 316 316 316 316 315 315 316 318 317 316 316 314 314 315 318 322 324 328 327 327
328 322 318 318 319 322 321 319 320 319 319 320 319 324 335 335 346 342 332 327 325 324 322 320 318 316 316 316 316 316 316 316 316 315 314 315 315 315 315 315 314 314 315 318 323 326 328 328 328
325 324 328 326 327 327 325 322 319 320 322 321 321 322 339 336 345 345 339 333 330 326 325 322 321 317 316 315 315 316 316 316 316 315 314 314 314 314 314 314 314 314 315 318 323 327 328 328 328
319 323 327 328 327 326 325 325 324 323 321 321 322 329 335 336 337 339 341 340 335 332 330 324 323 319 317 316 315 315 315 315 315 315 314 314 313 313 313 314 314 314 315 318 322 326 328 329 327
319 319 324 326 326 326 326 326 326 326 326 324 322 323 324 330 333 330 339 345 344 340 335 330 322 320 319 318 317 315 315 315 315 315 315 314 314 314 314 315 315 315 316 317 322 325 327 328 326
319 321 323 324 324 325 327 327 326 326 326 327 324 324 323 323 324 333 332 344 345 343 342 336 331 324 320 319 319 318 317 315 315 314 315 315 315 315 317 318 318 318 316 318 323 324 326 327 325
314 316 321 323 324 325 325 325 326 326 326 326 327 325 324 324 322 325 332 340 344 347 343 340 338 334 330 323 320 319 318 317 317 316 316 316 317 317 319 319 319 321 319 319 321 325 323 324 324
312 313 314 315 317 322 325 326 325 326 326 326 327 326 326 325 323 326 332 335 340 345 346 344 341 339 337 334 327 321 319 318 319 319 319 319 318 318 320 320 322 323 324 325 326 327 326 326 326
309 310 310 311 312 314 315 316 322 325 325 326 326 326 326 326 324 325 327 331 334 339 344 345 343 342 338 334 330 326 326 330 333 334 335 336 333 328 325 326 326 326 328 330 330 330 329 330 331
309 309 309 311 313 314 315 316 317 317 320 323 325 326 325 326 326 324 326 326 330 335 338 342 345 344 341 338 336 336 336 336 337 338 339 341 341 339 337 336 334 332 329 332 332 333 332 333 334
309 308 308 311 310 313 315 315 316 316 316 318 321 325 325 325 325 326 327 327 328 330 334 336 340 344 343 340 340 339 339 338 339 340 341 342 344 343 340 340 338 338 334 333 334 334 335 335 335
307 308 309 309 309 310 310 310 311 313 314 315 316 320 324 326 325 326 327 327 328 329 333 335 338 343 343 342 341 340 340 340 340 340 341 342 345 344 343 342 341 341 338 334 336 336 338 338 337
309 308 309 310 311 311 310 310 311 311 312 312 311 312 317 324 326 324 326 327 327 327 330 338 340 340 342 341 341 343 343 344 344 344 345 345 344 346 345 344 343 342 340 338 336 339 339 339 339
311 311 311 311 311 311 310 310 311 311 310 310 311 312 312 314 318 325 325 326 326 326 327 334 345 343 343 342 343 342 342 340 339 339 341 346 346 346 346 345 345 343 341 340 341 338 339 337 337
311 311 310 310 311 311 310 310 311 311 310 310 310 310 311 312 313 318 323 324 325 325 327 331 344 343 342 343 343 346 344 345 342 342 343 341 341 345 346 346 346 344 344 344 343 341 339 337 338
311 311 313 313 313 310 310 310 310 311 310 310 310 309 310 310 312 315 321 323 323 324 327 331 337 346 346 345 347 346 343 340 340 339 339 339 342 345 347 347 347 345 345 345 343 342 339 337 339
313 314 314 314 314 312 310 311 309 309 309 309 309 308 308 309 311 312 315 320 322 324 325 329 335 342 347 347 342 340 337 339 337 336 337 339 343 345 347 347 348 347 347 346 344 343 340 337 336
314 313 312 313 313 310 310 307 310 308 309 309 309 308 309 309 310 311 312 316 320 325 328 332 334 335 340 338 336 335 335 333 331 335 338 340 345 347 348 349 347 346 346 346 343 342 340 337 336
312 312 311 310 308 309 309 308 310 308 308 308 311 312 314 315 315 313 313 313 315 321 327 332 337 337 336 335 335 334 332 331 339 343 342 346 348 349 348 348 347 347 345 346 344 343 340 336 337
309 311 313 313 311 313 310 310 310 310 310 316 317 316 315 314 314 314 314 314 313 319 329 336 337 336 335 335 334 332 330 330 337 343 344 349 349 348 348 348 348 346 345 346 343 341 339 339 339
309 310 312 317 317 315 311 312 310 315 316 316 315 314 314 313 313 315 316 316 317 315 323 332 334 333 334 334 332 331 330 333 337 340 344 349 349 348 348 347 346 343 346 343 341 341 340 340 337
309 309 309 313 311 312 310 310 310 315 316 315 315 314 312 313 313 315 318 316 318 318 320 329 331 331 331 331 330 333 333 338 337 337 343 349 348 348 347 346 344 345 343 341 342 340 339 337 335
310 310 311 310 315 317 313 312 312 317 317 316 314 313 313 313 315 317 318 317 319 319 320 324 328 329 329 330 331 333 336 339 339 342 348 349 349 348 347 345 344 345 343 341 340 339 338 336 335
311 312 313 311 312 313 317 313 316 317 315 315 314 315 314 315 316 318 317 315 315 330 331 332 328 326 327 329 331 337 341 341 342 346 348 349 348 347 345 345 344 344 341 340 339 337 335 335 333
313 313 314 309 312 315 315 313 313 314 313 314 315 314 313 314 316 318 317 315 315 327 334 334 334 333 335 336 340 343 344 345 349 349 348 348 348 345 344 344 344 342 341 339 337 334 334 333 332
Wind_Speed
9 4 2 3 3 4 4 9 6 13 9 5 9 4 11 8 11 5 11 31 37 43 40 36 35 34 32 29 26 24 21 20 19 17 16 15 13 12 12 11 10 8 7 6 6 6 6 5 4
6 2 2 2 4 1 6 5 12 10 11 14 19 4 2 3 3 9 21 36 45 44 41 39 37 34 33 30 27 24 22 20 19 17 16 14 13 11 11 10 9 8 7 6 6 6 6 5 4
3 2 3 4 3 6 5 4 3 9 17 11 6 3 8 8 3 20 21 40 45 44 42 41 39 35 33 31 28 25 23 20 19 17 17 16 14 11 10 9 9 8 7 7 7 6 6 5 4
1 4 4 2 11 7 6 9 12 13 11 9 7 1 3 16 22 25 38 46 48 45 44 42 40 37 34 32 29 27 24 22 19 18 17 16 14 13 11 10 10 9 8 8 8 8 7 6 5
1 2 2 3 10 6 7 6 7 10 8 11 14 6 5 12 27 36 47 52 49 47 45 43 40 37 34 32 30 27 25 22 21 19 17 16 15 14 13 12 11 11 10 9 10 8 8 7 6
1 2 2 6 11 8 7 5 7 4 7 12 15 9 0 3 32 40 50 51 48 49 45 42 41 37 34 33 31 28 26 23 22 20 19 17 17 16 15 15 14 13 13 12 11 10 9 9 7
3 3 4 4 7 9 7 8 10 6 6 6 7 6 2 4 20 42 45 47 47 45 44 42 40 37 33 32 30 28 26 23 22 21 20 19 19 18 17 17 16 15 16 15 14 13 12 11 10
3 3 3 5 7 8 5 5 6 5 15 5 4 4 1 3 19 29 32 35 40 43 42 42 39 37 34 32 30 28 26 24 22 22 21 21 20 20 19 19 18 17 17 17 17 16 14 13 12
0 2 5 7 7 5 14 4 9 7 6 4 6 5 8 11 20 23 25 25 30 32 36 39 38 36 34 32 31 28 26 24 23 23 23 22 23 22 22 22 21 20 19 20 20 18 17 15 14
5 6 8 5 5 8 14 13 12 14 18 6 5 14 24 14 18 11 16 19 25 35 39 38 38 36 33 32 31 30 29 27 26 27 26 25 25 24 24 24 23 22 21 22 22 21 19 18 18
4 6 6 9 9 10 17 21 12 11 12 15 2 4 7 7 11 7 17 19 38 41 39 40 39 38 36 35 33 32 30 29 28 28 27 26 26 26 27 26 25 25 23 24 25 24 22 22 20
6 7 9 12 14 13 16 16 17 12 13 17 13 3 1 6 7 12 13 31 23 27 37 41 40 39 38 37 38 36 34 31 30 30 30 29 29 29 30 28 28 27 26 26 27 26 25 24 23
6 9 9 10 13 12 16 20 22 24 15 14 21 10 2 5 9 17 9 26 34 32 34 38 40 40 37 39 39 38 35 34 32 31 30 29 31 31 32 30 30 29 27 25 27 27 26 26 25
4 5 8 6 8 5 8 13 13 23 14 15 15 20 5 5 8 10 9 7 16 29 38 39 41 41 40 41 39 38 36 33 30 29 29 27 29 31 31 28 29 29 29 26 27 28 27 26 24
5 6 7 4 1 4 6 14 19 10 8 13 16 18 14 7 9 10 22 16 18 16 24 35 36 36 39 40 37 35 34 32 29 30 27 26 29 31 30 28 27 26 28 27 29 29 28 26 24
6 4 4 4 8 5 4 22 17 8 11 17 13 15 21 12 10 21 30 28 26 20 23 17 40 41 37 38 34 31 32 32 29 29 28 26 29 32 31 28 28 24 27 27 31 29 28 28 26
3 4 4 6 7 6 4 16 7 8 7 9 11 13 14 21 11 23 29 29 29 22 31 35 32 41 41 40 34 33 31 31 31 30 28 27 30 31 31 30 28 26 26 29 28 29 27 26 27
5 5 2 2 5 2 9 15 8 6 8 7 8 8 12 14 20 19 31 34 35 35 22 37 40 41 46 40 35 33 31 30 30 30 28 29 32 31 30 32 29 28 29 29 30 25 24 25 22
6 5 4 3 6 4 10 15 14 7 7 8 9 13 13 14 17 29 29 34 36 34 27 29 41 44 44 40 37 33 33 35 32 30 28 29 33 32 32 32 29 30 30 29 28 29 22 20 17
6 6 6 6 6 6 7 21 18 7 6 7 9 12 12 15 15 17 28 28 33 35 28 23 36 44 46 42 42 36 40 36 30 27 26 29 28 30 32 30 30 31 28 25 24 26 18 16 15
5 5 7 9 11 7 5 18 16 15 8 7 8 10 14 11 14 17 19 29 30 28 27 26 39 42 47 47 44 27 23 17 19 21 20 23 27 29 29 29 29 30 28 26 23 21 21 14 13
3 6 8 10 8 4 5 16 12 10 12 12 13 13 13 16 14 15 17 20 28 33 32 28 38 44 48 49 41 37 29 21 25 26 23 20 26 29 27 28 29 28 23 24 23 21 19 17 12
5 6 4 8 10 3 5 4 10 8 17 17 17 12 12 11 14 15 17 22 35 37 32 26 34 46 44 47 42 35 29 26 27 22 19 19 25 26 26 26 24 25 24 23 21 20 17 17 15
1 3 5 4 2 4 4 6 18 5 12 6 8 13 13 16 20 20 26 29 29 34 35 31 31 41 46 40 36 32 32 29 25 20 18 18 24 25 25 23 21 21 22 19 19 19 17 18 15
6 4 4 5 3 5 5 8 13 9 9 3 6 11 14 13 15 19 20 21 26 23 32 34 36 39 40 36 35 37 35 33 30 25 22 24 27 27 25 24 22 21 24 18 17 18 17 16 15
4 5 4 4 3 7 12 7 6 2 5 2 5 7 10 13 14 18 20 20 27 30 30 33 32 36 43 41 41 40 39 37 32 27 25 30 33 31 27 24 21 19 21 17 18 16 17 16 14
3 4 6 4 6 7 5 7 7 3 6 5 9 10 11 13 16 18 21 19 29 31 29 33 32 37 43 47 44 40 39 36 33 29 28 31 33 32 27 24 22 21 19 18 19 18 17 15 14
2 3 3 3 3 5 4 6 8 6 9 12 17 14 16 16 18 16 16 20 35 28 29 36 36 37 40 40 42 40 38 35 32 29 28 30 33 31 27 26 24 21 21 21 20 17 15 14 14
4 1 3 2 4 4 4 5 4 6 4 10 14 14 17 17 21 15 15 23 35 16 23 23 28 33 36 41 40 33 31 28 32 29 30 31 34 30 29 28 23 23 24 21 18 15 15 14 14
6 6 4 3 4 4 4 10 5 4 6 6 11 12 16 18 21 14 15 22 24 26 7 11 17 21 24 27 28 26 25 30 27 29 31 34 33 31 31 27 26 24 23 20 17 16 15 15 14
Wind_Direction
316 329 336 35 62 66 249 256 296 293 339 256 277 183 184 161 156 207 160 159 162 160 164 170 171 163 158 157 156 156 157 158 157 157 157 156 154 151 149 151 151 157 160 162 157 159 153 147 143
320 77 73 85 104 149 268 251 270 278 264 292 294 137 114 150 212 125 132 163 162 160 167 173 174 168 162 163 162 163 165 167 167 167 167 168 165 162 161 164 165 172 175 178 172 168 164 161 155
329 122 91 130 180 192 234 239 271 284 296 277 279 167 146 177 70 149 158 162 163 163 171 176 176 172 168 167 168 169 173 174 176 178 178 177 177 175 176 180 184 185 190 190 183 185 182 178 171
26 13 24 117 247 253 250 297 308 312 310 318 265 161 94 177 152 165 167 163 164 167 174 178 177 176 173 171 173 176 178 180 183 187 189 187 187 187 192 195 199 201 200 199 196 200 196 197 189
232 69 100 244 260 268 284 288 298 304 288 322 315 286 144 171 156 163 166 165 167 169 176 179 179 178 179 177 176 180 185 187 189 194 198 198 197 199 204 210 210 211 215 209 209 210 208 211 207
360 122 91 229 259 284 275 294 282 293 287 323 345 316 30 213 146 160 165 167 171 172 177 182 181 181 182 183 180 184 188 193 195 200 204 208 210 211 212 215 218 217 220 219 219 218 220 223 224
183 121 216 260 271 289 285 314 289 274 282 298 292 323 347 90 165 163 165 169 172 175 178 183 185 185 186 189 187 187 190 197 202 206 209 213 218 220 219 221 224 223 226 226 225 222 227 231 235
203 119 218 224 254 276 269 325 286 321 314 300 352 300 246 204 166 153 159 166 172 177 182 186 187 187 188 192 195 194 194 198 207 213 214 216 222 227 228 226 228 229 234 233 230 228 230 235 241
181 104 230 231 234 276 299 323 306 288 308 336 320 3 341 163 155 134 139 156 169 179 187 189 190 191 192 196 199 201 201 203 210 218 220 220 224 228 231 231 229 230 233 240 237 234 235 240 245
177 185 219 235 277 289 290 305 327 339 322 315 55 349 0 34 143 139 158 165 174 180 190 193 194 195 196 201 203 205 205 206 212 219 223 224 227 230 235 235 235 234 235 242 243 240 239 243 248
218 236 256 269 283 286 285 292 304 299 300 299 317 334 354 354 353 290 173 188 181 189 186 192 196 197 199 204 208 211 210 212 216 222 226 230 230 231 233 234 236 235 235 240 243 242 241 244 249
257 255 242 253 255 261 270 284 289 274 260 289 296 223 158 329 304 308 219 192 204 187 194 194 196 196 200 206 210 213 213 215 219 224 227 230 232 234 233 234 237 237 236 240 243 245 246 247 250
251 278 270 259 261 257 263 269 274 278 276 281 294 294 218 314 307 320 306 192 193 193 199 205 200 199 200 205 209 214 216 220 224 226 228 230 233 236 236 237 238 237 238 237 244 245 247 249 251
294 289 277 275 282 290 269 272 279 275 279 275 283 293 282 234 272 307 307 234 176 203 209 208 208 206 198 202 205 208 210 214 219 224 227 230 235 235 234 234 237 236 238 236 243 246 246 251 253
299 310 319 298 264 265 281 276 257 283 312 280 267 271 270 230 273 264 282 281 272 184 211 215 217 215 203 204 206 207 211 215 219 227 231 232 235 237 234 232 232 236 238 236 239 245 248 250 254
338 345 320 342 358 275 156 269 275 264 270 279 285 268 274 253 241 267 276 282 284 265 195 216 219 218 212 209 210 215 219 218 220 230 236 240 239 238 236 233 231 233 237 236 236 239 244 245 247
300 252 264 314 250 253 205 275 316 329 295 289 285 276 259 268 246 247 263 271 276 283 231 207 206 221 215 212 214 219 223 223 225 232 240 248 247 239 236 239 237 231 232 230 234 236 240 242 245
243 260 275 265 337 1 295 288 289 304 312 310 318 325 309 281 261 238 246 256 267 270 269 226 201 206 212 211 214 218 221 226 230 234 238 244 249 247 240 239 239 233 228 230 231 231 231 240 242
259 247 281 254 265 292 284 280 284 292 315 315 304 304 299 295 296 277 242 249 257 266 261 232 201 204 202 203 207 217 223 227 232 236 239 242 243 245 241 236 237 230 227 226 230 232 234 217 212
325 313 302 270 283 294 288 288 289 285 271 281 287 297 299 297 299 291 277 249 247 257 253 240 217 200 200 201 204 208 214 222 226 238 245 245 239 237 232 231 230 224 223 219 222 226 222 219 192
1 354 343 321 324 313 295 287 297 296 283 279 283 280 290 286 295 301 294 273 246 242 240 224 219 208 200 201 203 195 197 209 209 223 240 241 237 234 230 227 225 219 219 222 222 220 217 193 189
333 340 327 324 330 276 273 282 280 300 303 301 294 287 283 289 292 291 294 286 263 248 245 239 222 211 201 199 197 195 200 204 231 242 255 255 234 229 225 222 217 212 211 220 221 218 213 215 183
229 319 292 285 276 280 257 258 277 309 293 292 293 295 299 297 295 289 290 288 277 254 245 244 234 210 204 199 205 210 219 229 244 247 239 242 225 223 219 212 207 211 218 224 220 211 206 209 201
325 334 319 300 189 230 197 210 276 252 261 288 315 331 353 342 336 312 299 292 282 263 238 232 218 214 209 207 210 211 219 226 221 211 221 226 213 206 203 203 204 207 212 215 210 215 209 207 217
58 44 344 331 349 238 241 269 264 295 325 50 334 325 329 329 322 313 305 309 286 259 233 216 210 212 213 213 214 217 223 229 224 205 206 198 194 194 198 201 201 204 219 219 202 209 207 207 207
235 175 166 261 291 303 304 257 256 90 85 289 289 277 304 317 319 311 300 300 285 271 238 215 206 208 213 217 223 225 225 228 221 203 206 201 192 197 198 199 192 206 202 197 203 199 201 207 212
263 221 218 242 270 265 242 283 292 319 309 295 285 308 314 316 313 307 307 307 303 257 227 211 201 206 211 214 223 224 225 222 218 205 207 203 201 200 194 193 196 197 188 187 187 186 192 206 212
51 289 13 15 289 276 272 283 262 297 295 328 320 329 315 316 310 310 311 309 313 255 215 211 205 205 213 218 223 224 223 221 212 201 195 202 202 194 187 195 194 186 182 182 183 188 198 200 204
347 341 65 129 166 220 300 248 227 271 312 296 308 319 321 318 304 303 308 325 319 263 183 179 195 207 216 219 220 216 210 209 200 198 198 199 194 185 188 190 182 177 177 181 184 192 192 196 197
170 200 171 133 260 243 257 276 313 185 256 295 314 319 325 313 304 266 336 329 305 296 214 214 193 192 200 199 199 199 190 191 186 193 196 195 184 183 185 181 178 177 179 182 188 189 194 192 196